ASA22 KSAN-KSFO

Flight info

Callsign ASA22
Flight time N/A
Altitude 40000
Route PADRZ2 IKAYE RIZIN SPLNT STOKD SERFR SERFR4
Aircraft B738/M-SDE2E3FGHIRWXY/LB1

Departure

Time 2026-04-22 00:58
Airport San Diego International Airport (KSAN)

Arrival

Time N/A
Airport San Francisco International Airport (KSFO)
Time Latitude Longitude Altitude Speed Heading
2026-04-22 00:38 32.73288 -117.19556 28 ft 0 kts 282°
2026-04-22 00:50 32.73287 -117.19552 29 ft 2 kts 285°
2026-04-22 00:50 32.73277 -117.19540 28 ft 2 kts 354°
2026-04-22 00:51 32.73268 -117.19539 26 ft 0 kts 11°
2026-04-22 00:54 32.73301 -117.19520 24 ft 11 kts 32°
2026-04-22 00:54 32.73360 -117.19448 26 ft 13 kts 73°
2026-04-22 00:54 32.73343 -117.19333 25 ft 17 kts 105°
2026-04-22 00:55 32.73300 -117.19159 27 ft 27 kts 106°
2026-04-22 00:55 32.73241 -117.18921 27 ft 33 kts 106°
2026-04-22 00:55 32.73116 -117.18402 21 ft 32 kts 106°
2026-04-22 00:56 32.73055 -117.18155 21 ft 31 kts 106°
2026-04-22 00:56 32.73001 -117.17933 18 ft 24 kts 106°
2026-04-22 00:56 32.72961 -117.17775 17 ft 12 kts 107°
2026-04-22 00:56 32.72955 -117.17676 18 ft 12 kts 77°
2026-04-22 00:57 32.73008 -117.17614 22 ft 12 kts 347°
2026-04-22 00:57 32.73072 -117.17796 20 ft 53 kts 285°
2026-04-22 00:57 32.73239 -117.18484 24 ft 117 kts 286°
2026-04-22 00:57 32.73502 -117.19605 46 ft 161 kts 284°
2026-04-22 00:58 32.73813 -117.20838 789 ft 155 kts 287°
2026-04-22 00:58 32.74222 -117.22140 1042 ft 181 kts 289°
2026-04-22 00:58 32.74793 -117.23458 1694 ft 183 kts 303°
2026-04-22 00:58 32.75705 -117.24544 2448 ft 188 kts 321°
2026-04-22 00:59 32.76824 -117.25431 2942 ft 202 kts 310°
2026-04-22 00:59 32.77502 -117.26931 3176 ft 218 kts 291°
2026-04-22 00:59 32.78242 -117.28575 3567 ft 234 kts 298°
2026-04-22 00:59 32.79144 -117.30298 3989 ft 251 kts 300°
2026-04-22 01:00 32.80101 -117.32056 4797 ft 253 kts 301°
2026-04-22 01:00 32.81148 -117.33757 5599 ft 257 kts 303°
2026-04-22 01:00 32.82255 -117.35465 6315 ft 263 kts 303°
2026-04-22 01:00 32.83388 -117.37199 7073 ft 267 kts 303°
2026-04-22 01:01 32.84518 -117.38932 7859 ft 269 kts 303°
2026-04-22 01:01 32.85674 -117.40712 8683 ft 273 kts 303°
2026-04-22 01:01 32.86842 -117.42518 9493 ft 277 kts 302°
2026-04-22 01:01 32.87625 -117.43731 10034 ft 280 kts 302°
2026-04-22 01:02 32.88836 -117.45613 10474 ft 298 kts 302°
2026-04-22 01:02 32.90596 -117.48357 10799 ft 327 kts 303°
2026-04-22 01:02 32.91539 -117.49822 11184 ft 333 kts 303°
2026-04-22 01:02 32.92939 -117.51995 11893 ft 336 kts 303°
2026-04-22 01:03 32.94367 -117.54212 12679 ft 338 kts 303°
2026-04-22 01:03 32.95804 -117.56451 13454 ft 342 kts 303°
2026-04-22 01:03 32.97256 -117.58715 14203 ft 345 kts 302°
2026-04-22 01:03 32.98720 -117.60999 14711 ft 347 kts 302°
2026-04-22 01:04 33.00190 -117.63295 14952 ft 348 kts 302°
2026-04-22 01:04 33.01657 -117.65584 14979 ft 348 kts 302°
2026-04-22 01:04 33.03140 -117.67905 15404 ft 354 kts 302°
2026-04-22 01:04 33.04629 -117.70234 16330 ft 351 kts 302°
2026-04-22 01:05 33.06113 -117.72543 17189 ft 352 kts 303°
2026-04-22 01:05 33.07845 -117.74671 17898 ft 363 kts 313°
2026-04-22 01:05 33.09810 -117.76617 18590 ft 368 kts 314°
2026-04-22 01:05 33.11805 -117.78555 19218 ft 371 kts 314°
2026-04-22 01:06 33.13804 -117.80526 19860 ft 374 kts 313°
2026-04-22 01:06 33.15779 -117.82512 20493 ft 376 kts 313°
2026-04-22 01:06 33.17786 -117.84554 21112 ft 379 kts 313°
2026-04-22 01:06 33.19793 -117.86621 21735 ft 381 kts 310°
2026-04-22 01:07 33.21722 -117.88798 22345 ft 382 kts 308°
2026-04-22 01:07 33.23609 -117.91050 22936 ft 384 kts 307°
2026-04-22 01:07 33.25488 -117.93334 23503 ft 387 kts 307°
2026-04-22 01:07 33.27385 -117.95642 23989 ft 391 kts 307°
2026-04-22 01:08 33.29303 -117.97967 24469 ft 393 kts 307°
2026-04-22 01:08 33.31233 -118.00294 24963 ft 395 kts 307°
2026-04-22 01:08 33.33152 -118.02600 25433 ft 397 kts 307°
2026-04-22 01:08 33.35110 -118.04948 25885 ft 400 kts 307°
2026-04-22 01:09 33.37081 -118.07310 26347 ft 402 kts 307°
2026-04-22 01:09 33.39057 -118.09675 26923 ft 401 kts 306°
2026-04-22 01:09 33.41034 -118.12042 27406 ft 402 kts 306°
2026-04-22 01:09 33.43021 -118.14425 27806 ft 406 kts 306°
2026-04-22 01:10 33.45022 -118.16828 28173 ft 409 kts 306°
2026-04-22 01:10 33.47041 -118.19255 28558 ft 411 kts 306°
2026-04-22 01:10 33.49066 -118.21687 28965 ft 413 kts 306°
2026-04-22 01:10 33.51076 -118.24104 29364 ft 415 kts 306°
2026-04-22 01:11 33.53124 -118.26567 29731 ft 418 kts 306°
2026-04-22 01:11 33.55179 -118.29043 30087 ft 420 kts 305°
2026-04-22 01:11 33.57245 -118.31531 30424 ft 422 kts 305°
2026-04-22 01:11 33.59322 -118.34037 30720 ft 424 kts 305°
2026-04-22 01:12 33.61399 -118.36540 31134 ft 423 kts 305°
2026-04-22 01:12 33.63466 -118.39030 31638 ft 419 kts 305°
2026-04-22 01:12 33.65516 -118.41502 32086 ft 417 kts 305°
2026-04-22 01:12 33.67563 -118.43976 32445 ft 417 kts 305°
2026-04-22 01:13 33.69608 -118.46452 32798 ft 417 kts 305°
2026-04-22 01:13 33.71647 -118.48922 33202 ft 415 kts 305°
2026-04-22 01:13 33.73677 -118.51382 33656 ft 413 kts 304°
2026-04-22 01:13 33.75700 -118.53835 34036 ft 413 kts 304°
2026-04-22 01:14 33.77696 -118.56258 34348 ft 412 kts 304°
2026-04-22 01:14 33.79716 -118.58713 34673 ft 411 kts 304°
2026-04-22 01:14 33.81724 -118.61154 35003 ft 410 kts 304°
2026-04-22 01:14 33.83730 -118.63594 35305 ft 410 kts 304°
2026-04-22 01:15 33.85734 -118.66032 35604 ft 409 kts 304°
2026-04-22 01:15 33.87729 -118.68462 36016 ft 406 kts 305°
2026-04-22 01:15 33.89709 -118.70873 36355 ft 404 kts 305°
2026-04-22 01:15 33.91686 -118.73286 36636 ft 405 kts 305°
2026-04-22 01:16 33.93667 -118.75707 36841 ft 406 kts 305°
2026-04-22 01:16 33.95650 -118.78131 37118 ft 406 kts 305°
2026-04-22 01:16 33.97603 -118.80517 37438 ft 404 kts 305°
2026-04-22 01:16 33.99578 -118.82931 37720 ft 403 kts 305°
2026-04-22 01:17 34.01547 -118.85343 37960 ft 403 kts 305°
2026-04-22 01:17 34.03521 -118.87762 38223 ft 403 kts 305°
2026-04-22 01:17 34.05488 -118.90173 38519 ft 402 kts 305°
2026-04-22 01:17 34.07429 -118.92550 38774 ft 402 kts 305°
2026-04-22 01:18 34.09343 -118.95004 38997 ft 400 kts 304°
2026-04-22 01:18 34.11309 -118.97418 39119 ft 404 kts 306°
2026-04-22 01:18 34.13286 -118.99795 39236 ft 406 kts 306°
2026-04-22 01:18 34.15139 -119.02323 39379 ft 396 kts 297°
2026-04-22 01:19 34.16626 -119.05100 39593 ft 392 kts 294°
2026-04-22 01:19 34.18032 -119.07915 39744 ft 391 kts 294°
2026-04-22 01:19 34.19429 -119.10745 39868 ft 392 kts 294°
2026-04-22 01:19 34.20837 -119.13579 40009 ft 393 kts 294°
2026-04-22 01:20 34.23687 -119.19218 40107 ft 397 kts 294°
2026-04-22 01:20 34.26588 -119.24884 40117 ft 396 kts 294°
2026-04-22 01:21 34.29485 -119.30534 40109 ft 394 kts 295°
2026-04-22 01:21 34.32349 -119.36152 40157 ft 391 kts 297°
2026-04-22 01:22 34.33853 -119.38904 39997 ft 387 kts 291°
2026-04-22 01:22 34.35192 -119.41725 40085 ft 389 kts 295°
2026-04-22 01:22 34.38081 -119.47332 40100 ft 394 kts 294°
2026-04-22 01:23 34.41014 -119.52980 40102 ft 401 kts 299°
2026-04-22 01:23 34.44852 -119.58001 40108 ft 411 kts 307°
2026-04-22 01:24 34.48904 -119.62919 40102 ft 412 kts 307°
2026-04-22 01:24 34.52927 -119.67842 40080 ft 410 kts 306°
2026-04-22 01:25 34.56915 -119.72768 40124 ft 409 kts 307°
2026-04-22 01:25 34.60902 -119.77653 40088 ft 408 kts 307°
2026-04-22 01:26 34.64874 -119.82547 40105 ft 406 kts 307°
2026-04-22 01:26 34.68834 -119.87432 40116 ft 405 kts 307°
2026-04-22 01:27 34.72823 -119.92261 39996 ft 408 kts 307°
2026-04-22 01:27 34.74782 -119.94700 40109 ft 400 kts 306°
2026-04-22 01:27 34.76743 -119.97093 40095 ft 400 kts 307°
2026-04-22 01:28 34.80580 -120.01902 40137 ft 395 kts 306°
2026-04-22 01:28 34.84412 -120.06764 40138 ft 403 kts 307°
2026-04-22 01:29 34.88350 -120.11697 40112 ft 407 kts 307°
2026-04-22 01:29 34.92282 -120.16618 40104 ft 401 kts 307°
2026-04-22 01:30 34.96165 -120.21463 40098 ft 398 kts 307°
2026-04-22 01:30 35.00009 -120.26278 40103 ft 399 kts 307°
2026-04-22 01:31 35.03895 -120.31145 40108 ft 401 kts 307°
2026-04-22 01:31 35.07785 -120.36020 40120 ft 403 kts 307°
2026-04-22 01:32 35.11841 -120.40823 40119 ft 408 kts 310°
2026-04-22 01:32 35.16062 -120.45485 40113 ft 409 kts 310°
2026-04-22 01:33 35.20236 -120.50127 40073 ft 404 kts 310°